Regional Weather Roundup
Issued by NWS

Home | Current Version | Previous Version | Text Only | Print | Product List | Glossary Off
Versions: 1 2 3 4 5 6 7 8 9 10 11 12 13 14 15 16 17 18 19 20 21 22 23 24 25 26 27 28 29 30 31 32 33 34 35 36 37 38 39 40 41 42 43 44 45 46 47 48 49 50

000
ASUS43 KMPX 232210
RWRMN
WEATHER ROUNDUP FOR MINNESOTA
NATIONAL WEATHER SERVICE TWIN CITIES/CHANHASSEN MN
500 PM CDT MON APR 23 2018


NOTE: "FAIR" INDICATES FEW OR NO CLOUDS BELOW 12,000 FEET WITH NO
SIGNIFICANT WEATHER AND/OR OBSTRUCTIONS TO VISIBILITY. N/A MEANS
CURRENT SKY AND/OR WEATHER CONDITIONS ARE NOT AVAILABLE.

MNZ060>063-068>070-232300-
   Twin Cities Metro

CITY           SKY/WX    TMP DP  RH WIND       PRES   REMARKS
TWIN CITIES    FAIR      70  35  27 N3        30.13F
ST PAUL        FAIR      70  34  26 NW6       30.13F
CRYSTAL        FAIR      68  36  30 W12       30.12F
BLAINE         MOSUNNY   72  36  26 W5        30.13F
LAKEVILLE      FAIR      66  37  34 NW5       30.13F
EDEN PRAIRIE   FAIR      68  38  33 CALM      30.13F
SOUTH ST PAUL  FAIR      69  33  27 CALM      30.12F
LAKE ELMO      FAIR      68  36  30 CALM      30.13F
$$
MNZ001>005-007-008-013>017-022>024-027-028-232300-
   Northwest Minnesota

CITY           SKY/WX    TMP DP  RH WIND       PRES   REMARKS
BEMIDJI        FAIR      66  34  30 NW9       30.13F
HALLOCK        FAIR      63  28  27 N9G20     30.16F
ROSEAU         FAIR      61  36  39 NW10      30.15F
WARROAD        FAIR      61  34  36 NW8       30.15S
THIEF RVR FALL FAIR      60  35  39 NW13G21   30.17F
CROOKSTON      FAIR      63  37  39 N13       30.17F
FOSSTON        FAIR      64  32  29 NW10      30.16F
DETROIT LAKES  FAIR      64  37  36 NW6       30.15S
MOORHEAD       FAIR      66  37  34 N14       30.15F
PARK RAPIDS    FAIR      69  38  32 W10       30.11F
MAHNOMEN       FAIR      64  36  34 NW7       30.14F
$$
MNZ006-009>011-018-025>026-232300-
   North Central Minnesota

CITY           SKY/WX    TMP DP  RH WIND       PRES   REMARKS
BAUDETTE       FAIR      59  31  34 N14       30.13F
FLAG ISLAND    FAIR      54  28  37 CALM      30.13S
INTL FALLS     FAIR      62  31  31 W15       30.11F
WASKISH        PTSUNNY   57  32  38 W9        30.13F
BIG FORK       FAIR      66  30  26 NW6       30.11S
LONGVILLE      CLOUDY    66  36  32 CALM      30.11F
GRAND RAPIDS   FAIR      65  34  31 NW8       30.13F
CRANE LAKE     FAIR      63  27  25 N9        30.11F
ORR            FAIR      66  27  22 W7G20     30.07F
COOK           FAIR      64  34  32 W9        30.10F
WALKER         FAIR      67  33  27 N6        30.11F
$$
MNZ012-019>021-037-232300-
   Northeast Minnesota

CITY           SKY/WX    TMP DP  RH WIND       PRES   REMARKS
DULUTH         FAIR      67  37  33 VRB5      30.10F
ELY            FAIR      64  28  25 W10G18    30.09F
HIBBING        FAIR      66  34  30 NW13      30.10F
EVELETH        FAIR      67  32  27 W14       30.11F
DULUTH HARBOR  FAIR      66  36  32 SW10      30.10F
TWO HARBORS    PTSUNNY   66  43  42 S12G17    30.08F
SILVER BAY     FAIR      64  36  34 S10       30.08F
GRAND MARAIS     N/A     41  33  73 SW5       30.10F
G MARAIS ARPRT FAIR      57  28  33 S10G17    30.11S
$$
MNZ029>031-032-039>041-046>048-054>057-064-232300-
   West Central Minnesota

CITY           SKY/WX    TMP DP  RH WIND       PRES   REMARKS
FERGUS FALLS   FAIR      66  39  37 W3        30.10F
WHEATON        SUNNY     68  36  30 SE3       30.13F
MORRIS         SUNNY     68  41  37 NW6       30.12F
ALEXANDRIA     FAIR      71  37  28 N5        30.14F
ELBOW LAKE     FAIR      66  40  38 CALM      30.14S
WADENA         FAIR      66  43  42 NW5       30.12F
GLENWOOD       FAIR      66  36  32 CALM      30.14F
APPLETON       SUNNY     70  34  26 CALM      30.12F
BENSON         SUNNY     68  36  30 CALM      30.15S
ORTONVILLE     SUNNY     70  37  30 CALM      30.12F
MADISON        SUNNY     70  39  32 S3        30.13F
WILLMAR        FAIR      66  39  37 SW7       30.16F
$$
MNZ033>034-036-042>043-049>051-058-059-232300-
   Central Minnesota

CITY           SKY/WX    TMP DP  RH WIND       PRES   REMARKS
ST CLOUD       FAIR      68  37  32 SW3       30.12F
SAUK CENTRE    FAIR      67  36  31 W8        30.13F
PAYNESVILLE    FAIR      68  37  32 SW6       30.13F
AITKIN         FAIR      66  36  32 NW8       30.10F
PINE RIVER     FAIR      66  37  34 NW9       30.14S
BRAINERD       FAIR      70  37  29 NW9G17    30.12F
STAPLES        FAIR      68  34  28 NW3G9     30.12F
LONG PRAIRIE   FAIR      64  36  34 SW6       30.14S
LITTLE FALLS   FAIR      66  23  19 NW7       30.13F
LITCHFIELD     FAIR      68  39  34 CALM      30.14F
BUFFALO        FAIR      67  37  32 S3        30.14F
MAPLE LAKE     FAIR      68  41  36 W5        30.14F
HUTCHINSON     FAIR      68  45  43 W6        30.15F
$$
MNZ037-044-045-052-053-232300-
   East Central Minnesota

CITY           SKY/WX    TMP DP  RH WIND       PRES   REMARKS
PRINCETON      FAIR      70  37  30 CALM      30.13F
MORA           FAIR      64  36  34 NW5       30.15F
CAMBRIDGE      FAIR      70  45  40 W6        30.13F
RUSH CITY      FAIR      66  38  35 W5        30.13F
MOOSE LAKE     FAIR      68  37  32 SW5       30.11S
HINCKLEY       FAIR      68  39  34 SW6       30.13S
CLOQUET        FAIR      66  32  28 SW7       30.11F
MCGREGOR       FAIR      68  37  32 W7        30.12F
$$
MNZ071>073-080-081-089-090-097-098-232300-
   Southwest Minnesota

CITY           SKY/WX    TMP DP  RH WIND       PRES   REMARKS
MONTEVIDEO     SUNNY     72  37  28 W3        30.14F
GRANITE FALLS  SUNNY     68  38  33 CALM      30.15F
CANBY          SUNNY     68  35  29 SE5       30.14S
MARSHALL       SUNNY     66  35  31 W5        30.14F
REDWOOD FALLS  SUNNY     66  38  35 S6        30.14F
OLIVIA         SUNNY     68  37  32 CALM      30.13F
PIPESTONE      SUNNY    N/A N/A N/A SE5       30.14F
WINDOM         SUNNY     64  36  34 N6        30.15F
WORTHINGTON    SUNNY     64  39  39 NE7       30.15F
JACKSON        SUNNY     63  36  36 E5        30.16S
TRACY          SUNNY     65  37  35 CALM      30.14F
SLAYTON        SUNNY     63  35  35 CALM      30.16S
$$
MNZ065>067-074>077-082>085-091>093-232300-
   South Central Minnesota

CITY           SKY/WX    TMP DP  RH WIND       PRES   REMARKS
MANKATO        FAIR      66  39  37 NE3       30.15F
NEW ULM        SUNNY     66  37  34 W5        30.14F
ST JAMES       SUNNY     64  39  39 E3        30.16F
FAIRMONT       SUNNY     62  40  44 CALM      30.16F
GLENCOE        FAIR      67  41  39 NW6       30.14F
OWATONNA       FAIR      66  37  34 NW3       30.14F
WASECA         FAIR      64  36  34 NW5       30.16F
ALBERT LEA     FAIR      64  34  32 N3        30.14F
$$
MNZ078>079-086>088-094>096-232300-
   Southeast Minnesota

CITY           SKY/WX    TMP DP  RH WIND       PRES   REMARKS
ROCHESTER      FAIR      67  37  33 VRB5      30.14F
RED WING       FAIR      70  21  16 S8        30.12F
STANTON        FAIR      69  37  30 CALM      30.13S
DODGE CENTER   FAIR      64  36  34 NW3       30.14F
WINONA         FAIR      70  28  21 CALM      30.11F
AUSTIN         FAIR      66  39  37 N6        30.14S
PRESTON        FAIR      66  31  27 NE5       30.14F
$$
ABBREVIATIONS USED IN REMARKS
   TC - TEMPERATURES IN CELSIUS
  WCI - WIND CHILL INDEX
   HX - HEAT INDEX
  VSB - VISIBILITY
$$




USA.gov is the U.S. government's official web portal to all federal, state and local government web resources and services.